Traverse City, MI

5:27 AM EDT on April 29, 2017 (GMT -0400)
Cherry Capital

Weather History for KTVC - July, 2013

Change the Weather History Date:

Saturday, July 27, 2013

  Actual Average Record
Temperature  
Mean Temperature 59 °F 69 °F  
Max Temperature 63 °F 80 °F 99 °F (1941)
Min Temperature 55 °F 58 °F 43 °F (2001)
Degree Days  
Heating Degree Days 6 1  
Month to date heating degree days 19 28  
Since 1 June heating degree days 121 140  
Since 1 July heating degree days 19 28  
Cooling Degree Days 0 5  
Month to date cooling degree days 201 135  
Year to date cooling degree days 330 236  
Since 1 June cooling degree days 288 216  
Growing Degree Days 9 (Base 50)    
Moisture  
Dew Point 55 °F    
Average Humidity 83    
Maximum Humidity 93    
Minimum Humidity 72    
Precipitation  
Precipitation 0.04 in 0.10 in 0.93 in (2012)
Month to date precipitation 2.72 2.60  
Year to date precipitation 16.48 17.31  
Sea Level Pressure  
Sea Level Pressure 29.83 in    
Wind  
Wind Speed 6 mph (NW)    
Max Wind Speed 15 mph    
Max Gust Speed 18 mph    
Visibility 9 miles    
Events Rain    
T = Trace of Precipitation, MM = Missing Value Source: NWS Daily Summary

Daily Weather History Graph

Daily Weather History Graph

Search for Another Location

Airport or City:

Trip Planner

Search our weather history database for the weather conditions in past years. The results will help you decide how hot, cold, wet, or windy it might be!

Date:

Astronomy

Jul. 27, 2013 Rise Set
Actual Time 6:23 AM EDT 9:13 PM EDT
Civil Twilight 5:49 AM EDT 9:47 PM EDT
Nautical Twilight 5:05 AM EDT 10:31 PM EDT
Astronomical Twilight 4:14 AM EDT 11:21 PM EDT
Moon 11:42 PM EDT (7/27) 12:20 PM EDT (7/27)
Length of Visible Light 15h 58m
Length of Day
14h 50m
Waning Gibbous, 71% of the Moon is Illuminated
Jul 27
Waning Gibbous
Jul 29
Last Quarter
Aug 6
New
Aug 14
First Quarter
Aug 20
Full

Hourly Weather History & Observations

Time (EDT) Temp. Dew Point Humidity Pressure Visibility Wind Dir Wind Speed Gust Speed Precip Events Conditions
12:32 AM 62.6 °F 60.8 °F 94% 29.82 in 10.0 mi Calm Calm - N/A   Mostly Cloudy
12:49 AM 62.6 °F 60.8 °F 94% 29.82 in 10.0 mi Calm Calm - N/A   Mostly Cloudy
12:53 AM 63.0 °F 61.0 °F 93% 29.82 in 10.0 mi Calm Calm - N/A   Mostly Cloudy
1:37 AM 62.6 °F 60.8 °F 94% 29.83 in 9.0 mi Calm Calm - N/A   Scattered Clouds
1:53 AM 63.0 °F 61.0 °F 93% 29.82 in 7.0 mi West 3.5 mph - N/A   Mostly Cloudy
2:00 AM 62.6 °F 60.8 °F 94% 29.83 in 6.0 mi Calm Calm - N/A   Mostly Cloudy
2:53 AM 62.1 °F 60.1 °F 93% 29.83 in 10.0 mi WSW 4.6 mph - N/A   Mostly Cloudy
3:53 AM 62.1 °F 57.9 °F 86% 29.83 in 10.0 mi NNW 6.9 mph - N/A   Overcast
4:53 AM 59.0 °F 57.0 °F 93% 29.84 in 10.0 mi NNW 9.2 mph - N/A   Overcast
5:53 AM 57.9 °F 55.0 °F 90% 29.86 in 10.0 mi North 6.9 mph - N/A   Overcast
6:00 AM 57.2 °F 55.4 °F 94% 29.86 in 10.0 mi North 5.8 mph - N/A   Overcast
6:23 AM 57.2 °F 55.4 °F 94% 29.86 in 10.0 mi North 5.8 mph - N/A   Overcast
6:40 AM 57.2 °F 55.4 °F 94% 29.86 in 10.0 mi North 3.5 mph - N/A   Overcast
6:53 AM 57.9 °F 55.0 °F 90% 29.86 in 10.0 mi North 3.5 mph - N/A   Overcast
7:53 AM 59.0 °F 55.0 °F 87% 29.86 in 10.0 mi NNW 5.8 mph - N/A   Overcast
8:53 AM 59.0 °F 55.0 °F 87% 29.85 in 9.0 mi NNW 5.8 mph - N/A   Overcast
9:53 AM 59.0 °F 55.0 °F 87% 29.85 in 10.0 mi WNW 4.6 mph - N/A   Overcast
10:53 AM 61.0 °F 54.0 °F 78% 29.84 in 10.0 mi Calm Calm - N/A   Overcast
11:53 AM 60.1 °F 54.0 °F 80% 29.83 in 10.0 mi North 5.8 mph - N/A   Overcast
12:24 PM 60.8 °F 55.4 °F 82% 29.83 in 2.0 mi NNW 8.1 mph - 0.02 in Rain Light Rain
12:53 PM 59.0 °F 57.0 °F 93% 29.83 in 2.0 mi NW 6.9 mph - 0.04 in Rain Light Rain
1:04 PM 60.8 °F 57.2 °F 88% 29.82 in 3.0 mi NNW 8.1 mph - 0.00 in   Overcast
1:53 PM 60.1 °F 54.0 °F 80% 29.83 in 3.0 mi NNW 11.5 mph - 0.00 in   Overcast
2:53 PM 60.1 °F 53.1 °F 78% 29.83 in 10.0 mi NW 10.4 mph - N/A   Overcast
3:19 PM 60.8 °F 53.6 °F 77% 29.83 in 10.0 mi NNW 10.4 mph - N/A   Overcast
3:53 PM 60.1 °F 54.0 °F 80% 29.83 in 10.0 mi NW 10.4 mph - N/A   Overcast
4:05 PM 59.0 °F 53.6 °F 82% 29.83 in 10.0 mi NW 9.2 mph - N/A   Overcast
4:53 PM 60.1 °F 53.1 °F 78% 29.82 in 10.0 mi NNW 10.4 mph - N/A   Overcast
5:11 PM 59.0 °F 51.8 °F 77% 29.82 in 10.0 mi NNW 10.4 mph - N/A   Overcast
5:53 PM 57.9 °F 51.1 °F 78% 29.82 in 10.0 mi NW 10.4 mph - N/A   Overcast
6:53 PM 57.9 °F 48.9 °F 72% 29.83 in 10.0 mi WNW 6.9 mph - N/A   Overcast
7:53 PM 57.0 °F 50.0 °F 77% 29.83 in 10.0 mi West 4.6 mph - 0.00 in   Overcast
8:22 PM 57.2 °F 50.0 °F 77% 29.82 in 10.0 mi Calm Calm - N/A   Overcast
8:53 PM 57.9 °F 48.9 °F 72% 29.82 in 10.0 mi WNW 4.6 mph - N/A   Overcast
9:53 PM 57.0 °F 48.9 °F 74% 29.82 in 10.0 mi WSW 4.6 mph - N/A   Overcast
10:53 PM 55.9 °F 50.0 °F 80% 29.81 in 10.0 mi Calm Calm - N/A   Overcast
11:53 PM 55.9 °F 50.0 °F 80% 29.80 in 10.0 mi Calm Calm - N/A   Overcast